Location: McFarlands Corners
(41.4117°N, 81.3382°W)
Time: 17:00:25
(UTC+00:00)

SR - All Passes

Search period start: 16 February 2026 00:00
Search period end: 26 February 2026 00:00
Orbit: 574 x 847 km, 66.7° (Epoch: 15 February)

Date Brightness Start Highest point End Pass type
(mag) Time Alt. Az. Time Alt. Az. Time Alt. Az.
16 Feb - 09:36:54 10° S 09:40:44 36° ESE 09:44:43 10° NE visible
16 Feb - 11:19:04 10° WSW 11:22:29 23° NW 11:26:02 10° N visible
16 Feb - 18:14:21 10° NNW 18:18:52 32° NE 18:23:40 10° ESE daylight
16 Feb - 19:55:53 10° NW 20:00:34 37° WSW 20:05:33 10° S daylight
17 Feb - 08:43:57 10° SE 08:46:11 14° ESE 08:48:27 10° ENE visible
17 Feb - 10:23:11 10° SW 10:27:17 52° NW 10:31:35 10° NNE visible
17 Feb - 17:20:14 10° N 17:23:32 17° NE 17:26:58 10° E daylight
17 Feb - 19:00:39 10° NNW 19:05:44 82° WSW 19:11:13 10° SSE daylight
17 Feb - 20:45:58 10° W 20:46:44 10° WSW 20:47:32 10° WSW daylight
18 Feb - 09:28:14 10° SSW 09:32:21 61° ESE 09:36:40 10° NE visible
18 Feb - 11:11:45 10° W 11:14:28 16° NW 11:17:15 10° N visible
18 Feb - 18:05:51 10° NNW 18:10:44 47° NE 18:15:57 10° SE daylight
18 Feb - 19:48:03 10° WNW 19:52:11 25° WSW 19:56:32 10° SSW daylight
19 Feb - 08:34:21 10° SSE 08:37:41 23° ESE 08:41:06 10° ENE visible
19 Feb - 10:15:16 10° WSW 10:19:07 33° NW 10:23:08 10° NNE visible
19 Feb - 17:11:27 10° N 17:15:31 24° NE 17:19:49 10° ESE daylight
19 Feb - 18:52:27 10° NW 18:57:27 54° WSW 19:02:47 10° S daylight
20 Feb - 09:19:50 10° SSW 09:24:02 81° WNW 09:28:27 10° NNE visible
20 Feb - 11:05:03 10° WNW 11:06:31 11° NW 11:08:00 10° NNW visible
20 Feb - 16:17:44 10° NNE 16:20:03 13° NE 16:22:24 10° ENE daylight
20 Feb - 17:57:27 10° NNW 18:02:32 70° ENE 18:07:59 10° SE daylight
20 Feb - 19:40:36 10° WNW 19:43:45 16° WSW 19:47:01 10° SW daylight
21 Feb - 08:25:21 10° S 08:29:13 38° ESE 08:33:16 10° NE visible
21 Feb - 10:07:37 10° W 10:11:01 22° NW 10:14:33 10° N visible
21 Feb - 17:02:49 10° NNW 17:07:26 34° NE 17:12:19 10° ESE daylight
21 Feb - 18:44:25 10° NW 18:49:07 36° WSW 18:54:05 10° S daylight
22 Feb - 07:32:16 10° SE 07:34:40 15° ESE 07:37:07 10° ENE night (unlit)
22 Feb - 09:11:41 10° SW 09:15:47 50° NW 09:20:07 10° NNE visible
22 Feb - 16:08:39 10° N 16:12:06 18° NE 16:15:41 10° E daylight
22 Feb - 17:49:09 10° NNW 17:54:17 79° WSW 17:59:47 10° SSE daylight
23 Feb - 08:16:41 10° SSW 08:20:50 64° ESE 08:25:12 10° NE visible
23 Feb - 10:00:19 10° W 10:02:59 16° NW 10:05:44 10° N visible
23 Feb - 16:54:20 10° NNW 16:59:17 49° NE 17:04:35 10° SE daylight
23 Feb - 18:36:36 10° WNW 18:40:43 24° WSW 18:45:02 10° SSW daylight
24 Feb - 07:22:44 10° SSE 07:26:09 24° ESE 07:29:40 10° NE night (unlit)
24 Feb - 09:03:47 10° WSW 09:07:36 32° NW 09:11:38 10° NNE visible
24 Feb - 15:59:53 10° N 16:04:04 25° NE 16:08:28 10° ESE daylight
24 Feb - 17:40:58 10° NW 17:45:59 52° WSW 17:51:20 10° S daylight
25 Feb - 08:08:18 10° SSW 08:12:31 78° WNW 08:16:58 10° NNE visible
25 Feb - 09:53:40 10° WNW 09:55:02 11° NW 09:56:25 10° NNW visible
25 Feb - 15:06:04 10° N 15:08:35 14° NE 15:11:11 10° ENE daylight
25 Feb - 16:45:55 10° NNW 16:51:04 73° ENE 16:56:34 10° SE daylight
25 Feb - 18:29:11 10° WNW 18:32:16 16° WSW 18:35:25 10° SW daylight
